Theta_e
304 310 310 310 309 305 308 308 308 305 302 305 307 308 308 308 301 301 302 302 300 299 298 297 297 296 296 295 295 295 295 295 295 294 293 292 292 291 291 291 290 290 289 289
307 309 306 305 304 305 306 307 308 305 302 302 306 306 307 307 306 304 304 303 302 300 298 296 297 296 296 296 295 295 295 295 295 294 293 292 292 291 291 290 290 290 290 289
310 306 302 304 304 305 305 307 306 306 303 303 303 309 309 308 305 304 304 304 303 302 299 297 297 296 296 296 295 295 295 295 294 294 293 292 292 291 291 290 290 290 289 289
305 302 303 305 305 305 306 303 304 304 306 309 303 315 311 311 307 304 303 302 302 302 300 298 297 297 297 296 296 295 295 295 294 294 293 292 291 291 291 290 290 289 289 288
306 303 303 304 305 303 305 302 303 303 305 304 304 307 312 306 309 311 308 304 303 302 300 298 297 299 298 297 296 296 295 295 294 294 293 292 291 291 291 290 290 289 288 288
303 300 302 304 300 301 301 303 302 303 304 317 304 305 311 312 310 308 307 304 301 301 299 298 297 297 297 297 296 295 295 295 295 294 293 292 291 291 291 290 290 289 288 287
303 303 302 301 303 301 302 306 331 321 314 321 300 301 309 309 307 305 306 305 303 302 301 298 296 296 296 297 296 296 295 295 295 294 293 292 291 291 290 290 290 289 288 287
307 307 303 302 304 305 304 307 327 320 317 313 299 308 311 307 305 304 303 302 301 301 301 300 298 297 297 297 296 296 296 296 295 294 293 292 291 290 290 290 289 289 288 287
307 307 300 300 300 302 303 305 302 306 294 308 311 310 310 308 306 304 303 302 302 303 303 302 300 299 299 298 297 297 296 296 295 294 293 292 291 290 290 290 289 288 288 286
306 306 300 300 300 299 302 301 306 308 313 315 309 306 310 312 310 307 304 304 304 303 303 302 301 300 299 298 297 296 296 296 295 294 293 291 290 290 289 289 288 288 287 286
303 308 301 301 302 303 301 303 302 305 307 317 315 312 309 309 308 307 308 304 303 302 303 303 302 300 299 299 297 296 295 295 295 294 292 291 290 289 289 289 288 287 287 286
302 303 305 303 298 297 298 302 304 316 310 302 307 312 305 305 305 304 305 304 304 305 303 303 302 301 300 299 298 296 295 295 295 294 292 291 290 289 289 288 288 287 286 286
304 309 309 303 300 297 300 300 300 298 303 304 315 312 301 301 302 302 301 305 304 303 304 302 301 301 300 299 298 296 295 295 294 293 292 291 290 289 288 288 288 287 286 286
303 305 311 313 307 301 300 300 300 302 311 310 307 313 309 308 304 304 303 304 304 304 303 302 301 301 300 300 299 297 295 294 294 293 292 291 289 288 288 288 287 287 286 286
305 310 301 302 300 299 301 302 301 301 303 308 309 305 307 307 307 306 306 305 305 305 304 303 303 304 301 299 298 297 295 294 293 293 292 290 289 288 287 287 287 286 285 285
300 305 298 304 297 298 299 301 301 301 302 302 303 304 302 302 302 301 300 301 302 304 304 304 303 303 302 300 298 297 295 294 293 292 291 290 288 287 287 287 286 286 285 285
304 304 307 313 298 302 311 309 300 302 300 303 303 304 304 304 303 303 303 303 303 304 304 304 304 304 302 301 299 298 296 293 293 292 290 289 288 287 287 286 286 286 285 285
303 305 308 312 305 313 311 298 302 303 302 301 302 302 304 304 303 303 304 303 303 304 304 303 303 303 301 299 297 296 295 293 292 292 290 289 288 287 287 286 286 285 285 284
303 306 308 311 311 310 310 299 300 301 306 301 301 302 303 302 301 303 307 307 306 304 303 303 302 302 301 299 297 296 294 293 292 291 290 289 288 287 287 286 285 284 284 284
301 304 309 308 313 314 309 305 302 304 309 307 302 303 304 300 305 311 307 306 306 305 305 304 304 303 302 299 297 296 294 293 292 291 290 289 287 286 286 285 285 284 284 283
300 303 308 310 311 312 307 299 304 311 313 306 303 305 300 302 307 306 305 304 305 305 305 304 304 303 303 301 298 295 294 294 293 291 290 288 286 286 285 285 284 284 283 283
305 305 306 310 312 312 304 300 309 310 306 307 306 306 305 307 305 305 306 307 305 306 307 305 304 304 304 301 298 295 293 292 291 291 289 288 286 285 285 284 284 283 283 283
308 307 307 308 309 306 301 305 306 307 308 306 308 308 307 306 307 307 307 308 307 308 308 310 306 304 303 301 298 296 294 293 291 289 288 287 285 284 284 284 284 283 283 282
301 300 306 305 306 304 305 305 306 306 307 306 306 307 309 307 306 305 305 309 309 307 307 306 305 304 301 299 298 295 294 293 291 289 287 286 285 284 283 283 283 282 282 282
305 301 305 304 305 304 304 305 306 306 306 306 307 307 306 308 308 307 305 304 305 306 304 303 303 302 300 298 296 295 294 292 290 288 287 286 285 284 284 283 283 282 281 281
302 304 305 307 305 305 304 304 305 305 305 305 305 305 305 305 305 305 305 304 306 307 307 304 302 301 299 297 297 294 293 291 290 288 287 286 285 283 283 283 281 280 280 281
Wind_Speed
2 4 10 12 8 2 5 4 4 2 2 5 16 20 21 18 18 22 25 28 31 34 29 29 33 32 31 28 24 20 15 11 8 7 7 8 10 12 14 18 22 25 28 29
4 10 2 6 7 3 3 2 5 2 3 4 7 17 21 20 31 35 34 35 36 31 30 30 33 36 35 31 27 24 19 14 11 9 7 8 9 9 13 16 21 24 26 29
6 2 7 3 6 7 4 6 4 4 2 4 11 13 6 5 20 26 30 36 32 34 33 32 36 38 36 34 31 26 21 17 14 10 8 8 8 9 12 15 19 23 25 26
2 5 5 5 5 5 5 3 2 1 3 4 4 8 9 13 13 12 19 23 29 28 29 31 35 41 41 37 33 28 24 20 16 12 9 8 8 9 11 15 19 21 23 24
5 9 7 5 3 5 2 3 4 2 0 4 3 5 4 3 10 10 6 15 20 23 27 31 37 41 40 39 35 32 27 23 18 13 10 8 8 8 10 13 17 20 21 23
4 1 0 2 4 2 12 5 4 3 1 4 2 4 3 3 3 2 4 7 5 14 18 22 27 34 39 39 37 34 30 25 20 16 12 9 8 7 9 12 15 17 20 21
3 2 1 4 7 4 2 5 1 2 2 5 3 4 11 6 8 8 9 4 3 3 11 19 26 33 38 42 40 37 32 28 22 18 14 11 9 7 8 11 13 16 18 19
10 5 10 6 2 6 9 3 4 4 4 1 3 7 5 5 5 9 6 10 11 14 13 18 22 28 36 41 41 39 35 30 25 20 16 12 10 8 7 9 12 14 16 18
8 4 2 2 1 2 6 6 3 6 1 1 4 7 12 8 11 14 17 8 8 10 14 17 21 26 31 39 43 41 37 32 26 22 17 13 10 8 6 8 10 12 15 16
5 4 1 1 1 2 2 6 4 0 4 6 3 6 9 4 1 3 3 15 13 11 12 16 19 23 28 34 40 40 37 32 28 23 19 15 12 8 7 7 8 10 13 14
5 3 3 4 9 10 4 4 1 1 3 4 3 5 6 7 3 5 3 2 6 16 16 17 19 21 26 31 39 42 40 36 31 26 21 16 13 10 8 6 6 8 10 12
1 4 5 4 1 3 2 4 7 5 6 2 2 6 2 7 5 5 11 8 8 9 16 18 20 22 26 31 37 44 43 39 34 28 23 19 15 12 9 5 4 6 9 11
8 3 3 1 1 2 7 8 5 3 2 8 5 4 2 4 7 11 14 11 10 12 15 19 22 25 27 31 36 43 45 42 36 31 26 21 17 14 9 6 3 4 7 9
7 3 3 6 3 4 6 10 16 11 6 6 13 5 10 8 8 7 9 14 14 14 16 19 22 26 29 32 35 42 45 43 38 33 28 23 19 15 10 6 3 2 5 7
3 2 2 3 4 4 5 6 14 21 21 10 3 14 17 16 19 17 24 23 19 21 22 23 23 26 31 34 36 41 44 45 41 35 30 25 20 17 12 8 4 1 3 6
1 5 4 4 2 6 8 14 12 19 17 16 22 22 16 30 25 28 23 27 26 27 32 34 33 34 35 36 37 40 44 47 43 37 31 27 22 18 13 10 6 2 1 4
7 6 4 7 1 3 16 15 18 11 9 12 15 20 17 18 24 32 34 33 37 34 32 33 35 36 37 36 37 39 42 46 45 39 34 29 24 20 15 12 8 4 1 3
7 6 4 3 2 9 3 1 8 19 16 21 9 8 13 23 17 19 31 31 37 40 37 31 30 32 34 34 35 36 39 45 46 42 37 32 27 22 18 14 10 7 3 1
6 7 4 5 7 11 15 5 7 10 11 19 24 22 25 16 14 29 26 13 15 17 16 14 14 19 24 30 32 35 38 44 47 44 40 34 29 24 20 16 12 9 5 1
7 6 8 5 5 8 2 3 8 6 10 20 20 17 13 8 4 5 3 6 5 5 9 6 6 11 18 24 29 33 38 44 49 47 41 35 30 26 22 18 14 11 7 3
6 4 14 13 6 9 10 3 14 6 5 1 21 18 12 6 9 5 6 9 5 9 7 3 2 5 10 16 23 31 36 44 47 48 42 36 32 28 24 20 17 12 9 5
12 11 7 8 7 15 10 6 9 4 1 10 9 14 15 9 10 12 7 6 4 3 6 5 4 6 9 14 21 28 34 40 48 48 44 39 34 31 27 23 19 15 10 6
8 8 8 13 9 1 18 6 24 3 1 5 4 5 6 3 7 6 3 4 6 5 4 6 11 11 13 16 20 26 31 38 47 49 45 41 37 33 29 25 21 17 12 8
4 4 4 5 14 10 17 24 15 10 13 6 5 12 12 15 14 16 17 16 14 15 14 13 14 16 19 19 21 24 30 33 45 50 47 43 39 36 32 28 23 19 14 10
5 9 10 7 12 8 15 19 21 18 19 18 18 18 16 23 28 26 20 16 14 16 18 17 18 18 20 20 23 26 27 33 47 52 49 45 41 38 34 29 24 20 16 12
11 12 8 9 9 7 2 3 2 7 14 11 10 13 13 16 19 22 20 17 13 11 12 17 19 20 22 22 26 25 28 35 48 55 51 49 45 42 37 33 29 24 18 14
Wind_Direction
74 195 209 203 201 96 134 183 249 224 118 232 242 261 267 254 238 232 228 227 226 226 221 218 216 214 214 215 217 220 224 232 250 276 298 314 317 327 332 337 347 350 352 352
149 232 169 125 150 158 172 215 247 242 133 226 290 278 273 252 238 236 234 229 227 224 217 214 213 214 216 218 217 218 221 226 237 256 282 295 304 317 329 341 346 349 352 354
193 96 136 135 162 170 194 222 216 281 323 238 304 273 270 269 246 247 243 240 235 227 216 211 211 214 216 216 217 219 221 225 233 247 267 285 302 318 331 338 344 352 354 350
219 133 157 155 190 189 220 184 131 102 314 290 350 293 298 281 275 247 250 238 235 229 223 217 213 214 215 216 216 217 222 226 231 241 259 279 296 309 323 339 348 352 351 350
169 167 166 177 188 182 125 110 103 85 252 319 181 259 261 287 289 291 294 242 230 222 220 216 215 217 217 215 215 217 219 223 228 237 250 267 281 300 322 339 348 350 352 352
84 12 117 87 79 15 141 106 85 82 352 270 128 252 265 239 223 305 10 8 223 214 217 217 217 214 214 214 213 216 218 221 225 232 244 259 273 294 318 336 347 350 353 353
127 156 137 155 103 117 210 156 212 221 189 240 129 256 262 244 238 250 282 245 335 198 211 209 209 208 208 211 212 215 217 219 222 228 237 251 263 279 307 332 346 351 352 354
176 208 178 168 246 189 187 211 196 228 214 347 134 237 245 235 225 214 246 252 238 245 228 213 213 212 212 212 213 215 216 217 219 225 232 243 252 267 300 326 343 350 353 353
178 198 56 55 120 180 164 216 81 103 113 252 245 276 273 276 263 249 232 213 210 208 209 210 211 214 215 213 215 215 215 216 218 223 228 236 245 254 288 319 342 349 354 353
168 118 28 75 179 52 233 148 129 337 220 235 221 280 250 265 243 9 209 230 226 222 214 209 211 212 213 214 214 215 217 218 219 221 225 230 237 244 272 311 337 349 353 351
147 143 118 149 210 190 154 191 200 210 208 247 243 234 202 236 244 268 258 237 237 226 224 218 214 213 213 213 214 214 214 214 216 218 222 225 231 232 257 293 328 347 353 349
117 95 149 182 16 324 253 219 190 210 196 245 326 257 160 231 232 253 272 271 238 231 220 219 220 216 214 213 212 213 214 214 215 217 218 221 225 227 242 270 318 343 355 349
177 200 138 157 220 179 219 203 200 90 46 192 199 240 102 252 269 265 253 257 244 234 225 219 218 219 219 217 214 213 213 213 213 214 215 217 220 222 231 251 296 341 356 350
130 129 203 237 122 118 191 219 209 203 217 185 222 271 294 286 235 241 247 244 245 244 235 230 227 228 226 222 217 215 213 212 212 212 214 214 217 217 223 236 252 338 358 355
148 202 151 256 222 195 219 205 197 209 225 229 244 215 240 259 269 257 272 271 258 250 241 236 235 243 233 226 221 218 214 212 211 212 212 212 213 212 215 223 222 263 4 2
318 178 147 246 232 238 260 235 211 213 227 247 257 255 257 264 275 276 270 270 260 257 260 260 256 250 241 233 226 220 214 211 210 210 211 210 210 208 208 212 209 197 26 5
168 145 152 242 206 291 273 234 205 207 184 196 222 232 239 250 252 259 273 272 276 279 273 264 257 253 246 237 232 224 217 210 208 208 208 209 207 205 205 205 202 189 159 15
158 152 176 266 184 235 251 334 215 208 206 208 243 243 223 237 256 270 274 274 278 281 282 275 264 256 247 239 232 225 219 211 207 206 207 206 205 201 203 202 198 186 176 51
170 164 176 205 209 302 294 208 181 180 236 209 224 241 247 251 295 285 294 300 294 291 288 280 257 252 249 238 229 222 216 209 207 206 206 205 202 200 201 200 196 188 175 134
213 215 189 161 217 239 273 302 203 130 276 227 203 231 245 170 236 268 68 358 342 13 341 314 249 236 234 228 224 219 214 208 206 206 206 204 201 198 199 198 195 190 176 163
172 217 217 212 222 269 235 159 141 182 242 170 191 222 157 194 222 260 285 316 313 330 340 318 228 219 220 223 219 216 213 208 205 204 203 201 198 196 196 198 194 188 182 172
170 173 197 210 202 256 162 121 202 202 142 115 139 198 203 261 276 269 277 320 307 3 7 322 260 237 229 223 218 216 214 208 205 200 200 198 196 194 196 195 196 189 184 177
194 190 176 197 208 211 187 205 210 210 64 177 192 262 290 276 267 233 312 329 264 257 263 275 248 241 235 228 223 219 212 210 203 198 198 197 195 195 195 196 194 191 188 182
247 206 214 143 239 231 219 226 241 233 245 241 288 314 309 290 281 279 288 287 267 255 264 254 242 242 235 224 223 219 217 209 201 198 196 195 196 194 195 194 193 192 192 182
201 157 218 251 269 301 260 251 254 261 271 275 290 292 266 258 273 281 280 271 269 250 261 259 251 242 238 225 221 221 212 205 197 198 196 196 196 196 195 195 195 191 188 181
214 220 217 240 246 252 260 27 17 269 267 280 305 300 296 291 284 283 276 276 252 251 265 263 252 241 232 222 225 219 210 200 197 196 196 197 196 195 196 194 189 189 191 189